Time,TemperatureF,DewpointF,PressureIn,WindDirection,WindDirectionDegrees,WindSpeedMPH,WindSpeedGustMPH,Humidity,HourlyPrecipIn,Conditions,Clouds,dailyrainin,SolarRadiationWatts/m^2,SoftwareType,DateUTC
2013-05-30 00:01:00,78.6,75.8,29.77,ESE,119,17.0,17.0,91,0.00,CLR,SKC,0.00,0.0,WeatherDisplay:10.37,2013-05-30 05:01:00,
2013-05-30 00:06:00,78.7,75.8,29.77,SE,127,12.7,12.7,91,0.00,CLR,SKC,0.00,0.0,WeatherDisplay:10.37,2013-05-30 05:06:00,
2013-05-30 00:11:00,78.7,75.8,29.78,ESE,115,15.0,15.0,91,0.00,CLR,SKC,0.00,0.0,WeatherDisplay:10.37,2013-05-30 05:11:00,
2013-05-30 00:16:00,78.7,75.8,29.78,ESE,109,11.5,11.5,91,0.00,CLR,SKC,0.00,0.0,WeatherDisplay:10.37,2013-05-30 05:16:00,
2013-05-30 00:21:00,78.7,75.5,29.78,SE,144,17.3,17.3,90,0.00,CLR,SKC,0.00,0.0,WeatherDisplay:10.37,2013-05-30 05:21:00,
2013-05-30 00:26:00,78.7,75.5,29.78,ESE,115,15.0,15.0,90,0.00,CLR,SKC,0.00,0.0,WeatherDisplay:10.37,2013-05-30 05:26:00,
2013-05-30 00:31:00,78.7,75.5,29.78,SE,128,13.0,13.0,90,0.00,CLR,SKC,0.00,0.0,WeatherDisplay:10.37,2013-05-30 05:31:00,
2013-05-30 00:36:00,78.7,75.8,29.78,ESE,111,11.5,11.5,91,0.00,CLR,SKC,0.00,0.0,WeatherDisplay:10.37,2013-05-30 05:36:00,
2013-05-30 00:41:00,78.7,75.8,29.77,SSE,164,15.0,15.0,91,0.00,CLR,SKC,0.00,0.0,WeatherDisplay:10.37,2013-05-30 05:41:00,
2013-05-30 00:46:00,78.6,75.8,29.77,SE,134,17.3,17.3,91,0.00,CLR,SKC,0.00,0.0,WeatherDisplay:10.37,2013-05-30 05:46:00,
2013-05-30 00:51:00,78.6,75.8,29.77,SE,129,12.7,12.7,91,0.00,CLR,SKC,0.00,0.0,WeatherDisplay:10.37,2013-05-30 05:51:00,
2013-05-30 00:56:00,78.6,75.8,29.77,SE,138,12.7,12.7,91,0.00,CLR,SKC,0.00,0.0,WeatherDisplay:10.37,2013-05-30 05:56:00,
2013-05-30 01:01:00,78.5,75.7,29.77,ESE,123,12.7,12.7,91,0.00,CLR,SKC,0.00,0.0,WeatherDisplay:10.37,2013-05-30 06:01:00,
2013-05-30 01:06:00,78.6,75.8,29.77,SE,128,13.0,13.0,91,0.00,CLR,SKC,0.00,0.0,WeatherDisplay:10.37,2013-05-30 06:06:00,
2013-05-30 01:11:00,78.6,75.8,29.77,SE,131,11.5,11.5,91,0.00,CLR,SKC,0.00,0.0,WeatherDisplay:10.37,2013-05-30 06:11:00,
2013-05-30 01:16:00,78.6,75.8,29.77,ESE,119,12.7,12.7,91,0.00,CLR,SKC,0.00,0.0,WeatherDisplay:10.37,2013-05-30 06:16:00,
2013-05-30 01:21:00,78.6,75.8,29.77,ESE,115,11.5,11.5,91,0.00,CLR,SKC,0.00,0.0,WeatherDisplay:10.37,2013-05-30 06:21:00,
2013-05-30 01:26:00,78.6,75.8,29.77,ESE,108,17.3,17.3,91,0.00,CLR,SKC,0.00,0.0,WeatherDisplay:10.37,2013-05-30 06:26:00,
2013-05-30 01:31:00,78.5,75.7,29.77,SE,128,19.6,19.6,91,0.00,CLR,SKC,0.00,0.0,WeatherDisplay:10.37,2013-05-30 06:31:00,
2013-05-30 01:36:00,78.6,75.8,29.77,SE,134,15.0,15.0,91,0.00,CLR,SKC,0.00,0.0,WeatherDisplay:10.37,2013-05-30 06:36:00,
2013-05-30 01:41:00,78.5,75.7,29.76,SSE,147,17.3,17.3,91,0.00,CLR,SKC,0.00,0.0,WeatherDisplay:10.37,2013-05-30 06:41:00,
2013-05-30 01:46:00,78.5,75.7,29.76,ESE,110,15.0,15.0,91,0.00,CLR,SKC,0.00,0.0,WeatherDisplay:10.37,2013-05-30 06:46:00,
2013-05-30 01:51:00,78.6,75.8,29.76,SE,128,17.3,17.3,91,0.00,CLR,SKC,0.00,0.0,WeatherDisplay:10.37,2013-05-30 06:51:00,
2013-05-30 01:56:00,78.5,75.7,29.76,ESE,105,12.7,12.7,91,0.00,CLR,SKC,0.00,0.0,WeatherDisplay:10.37,2013-05-30 06:56:00,
2013-05-30 02:01:00,78.6,75.8,29.76,ESE,108,16.0,16.0,91,0.00,CLR,SKC,0.00,0.0,WeatherDisplay:10.37,2013-05-30 07:01:00,
2013-05-30 02:06:00,78.6,75.8,29.76,SE,128,12.7,12.7,91,0.00,CLR,SKC,0.00,0.0,WeatherDisplay:10.37,2013-05-30 07:06:00,
2013-05-30 02:11:00,78.6,75.8,29.76,SE,126,16.1,16.1,91,0.00,CLR,SKC,0.00,0.0,WeatherDisplay:10.37,2013-05-30 07:11:00,
2013-05-30 02:16:00,78.5,75.3,29.76,ESE,123,18.4,18.4,90,0.00,CLR,SKC,0.00,0.0,WeatherDisplay:10.37,2013-05-30 07:16:00,
2013-05-30 02:21:00,78.5,75.7,29.76,SE,125,18.4,18.4,91,0.00,CLR,SKC,0.00,0.0,WeatherDisplay:10.37,2013-05-30 07:21:00,
2013-05-30 02:26:00,78.5,75.7,29.75,ESE,115,15.0,15.0,91,0.00,CLR,SKC,0.00,0.0,WeatherDisplay:10.37,2013-05-30 07:26:00,
2013-05-30 02:31:00,78.5,75.7,29.75,SE,131,14.0,14.0,91,0.00,CLR,SKC,0.00,0.0,WeatherDisplay:10.37,2013-05-30 07:31:00,
2013-05-30 02:36:00,78.5,75.7,29.75,SE,136,11.5,11.5,91,0.00,CLR,SKC,0.00,0.0,WeatherDisplay:10.37,2013-05-30 07:36:00,
2013-05-30 02:41:00,78.4,75.6,29.74,SE,146,13.8,13.8,91,0.00,CLR,SKC,0.00,0.0,WeatherDisplay:10.37,2013-05-30 07:41:00,
2013-05-30 02:46:00,78.5,75.7,29.74,SE,140,17.3,17.3,91,0.00,CLR,SKC,0.00,0.0,WeatherDisplay:10.37,2013-05-30 07:46:00,
2013-05-30 02:51:00,78.5,75.7,29.74,ESE,105,17.3,17.3,91,0.00,CLR,SKC,0.00,0.0,WeatherDisplay:10.37,2013-05-30 07:51:00,
2013-05-30 02:56:00,78.5,75.7,29.74,ESE,120,12.7,12.7,91,0.00,CLR,SKC,0.00,0.0,WeatherDisplay:10.37,2013-05-30 07:56:00,
2013-05-30 03:01:00,78.5,75.7,29.74,ESE,115,15.0,15.0,91,0.00,CLR,SKC,0.00,0.0,WeatherDisplay:10.37,2013-05-30 08:01:00,
2013-05-30 03:06:00,78.4,75.6,29.74,SE,126,16.1,16.1,91,0.00,CLR,SKC,0.00,0.0,WeatherDisplay:10.37,2013-05-30 08:06:00,
2013-05-30 03:11:00,78.4,75.6,29.73,ESE,119,19.6,19.6,91,0.00,CLR,SKC,0.00,0.0,WeatherDisplay:10.37,2013-05-30 08:11:00,
2013-05-30 03:16:00,78.5,75.7,29.73,SE,131,15.0,15.0,91,0.00,CLR,SKC,0.00,0.0,WeatherDisplay:10.37,2013-05-30 08:16:00,
2013-05-30 03:21:00,78.5,76.0,29.73,SSE,160,11.5,11.5,92,0.00,CLR,SKC,0.00,0.0,WeatherDisplay:10.37,2013-05-30 08:21:00,
2013-05-30 03:26:00,78.5,76.0,29.74,SE,132,12.0,12.0,92,0.00,CLR,SKC,0.00,0.0,WeatherDisplay:10.37,2013-05-30 08:26:00,
2013-05-30 03:31:00,78.5,76.0,29.74,SE,136,17.3,17.3,92,0.00,CLR,SKC,0.00,0.0,WeatherDisplay:10.37,2013-05-30 08:31:00,
2013-05-30 03:36:00,78.5,76.0,29.74,ESE,112,13.8,13.8,92,0.00,CLR,SKC,0.00,0.0,WeatherDisplay:10.37,2013-05-30 08:36:00,
2013-05-30 03:41:00,78.4,75.9,29.73,SSE,148,11.5,11.5,92,0.00,CLR,SKC,0.00,0.0,WeatherDisplay:10.37,2013-05-30 08:41:00,
2013-05-30 03:46:00,78.4,75.9,29.73,SSE,166,15.0,15.0,92,0.00,CLR,SKC,0.00,0.0,WeatherDisplay:10.37,2013-05-30 08:46:00,
2013-05-30 03:51:00,78.4,75.9,29.73,ESE,117,12.7,12.7,92,0.00,CLR,SKC,0.00,0.0,WeatherDisplay:10.37,2013-05-30 08:51:00,
2013-05-30 03:56:00,78.4,75.9,29.73,SE,144,16.1,16.1,92,0.00,CLR,SKC,0.00,0.0,WeatherDisplay:10.37,2013-05-30 08:56:00,
2013-05-30 04:01:00,78.4,75.9,29.73,SE,125,15.0,15.0,92,0.00,CLR,SKC,0.00,0.0,WeatherDisplay:10.37,2013-05-30 09:01:00,
2013-05-30 04:06:00,78.4,75.9,29.73,ESE,117,16.0,16.0,92,0.00,CLR,SKC,0.00,0.0,WeatherDisplay:10.37,2013-05-30 09:06:00,
2013-05-30 04:11:00,78.4,75.9,29.74,SE,138,15.0,15.0,92,0.00,CLR,SKC,0.00,0.0,WeatherDisplay:10.37,2013-05-30 09:11:00,
2013-05-30 04:16:00,78.5,76.0,29.74,SE,144,15.0,15.0,92,0.00,CLR,SKC,0.00,0.0,WeatherDisplay:10.37,2013-05-30 09:16:00,
2013-05-30 04:21:00,78.4,75.9,29.74,South,170,12.0,12.0,92,0.00,CLR,SKC,0.00,0.0,WeatherDisplay:10.37,2013-05-30 09:21:00,
2013-05-30 04:26:00,78.4,75.9,29.73,SSE,166,19.6,19.6,92,0.00,CLR,SKC,0.00,0.0,WeatherDisplay:10.37,2013-05-30 09:26:00,
2013-05-30 04:31:00,78.4,75.9,29.73,ESE,103,12.7,12.7,92,0.00,CLR,SKC,0.00,0.0,WeatherDisplay:10.37,2013-05-30 09:31:00,
2013-05-30 04:36:00,78.4,75.9,29.73,SE,145,16.1,16.1,92,0.00,CLR,SKC,0.00,0.0,WeatherDisplay:10.37,2013-05-30 09:36:00,
2013-05-30 04:41:00,78.4,75.9,29.73,SE,128,13.8,13.8,92,0.00,CLR,SKC,0.00,0.0,WeatherDisplay:10.37,2013-05-30 09:41:00,
2013-05-30 04:46:00,78.3,75.8,29.73,SE,127,14.0,14.0,92,0.00,CLR,SKC,0.00,0.0,WeatherDisplay:10.37,2013-05-30 09:46:00,
2013-05-30 04:51:00,78.4,75.9,29.73,East,99,12.7,12.7,92,0.00,CLR,SKC,0.00,0.0,WeatherDisplay:10.37,2013-05-30 09:51:00,
2013-05-30 04:56:00,78.4,75.6,29.73,ESE,107,19.6,19.6,91,0.00,CLR,SKC,0.00,0.0,WeatherDisplay:10.37,2013-05-30 09:56:00,
2013-05-30 05:01:00,78.4,75.6,29.73,SE,124,17.3,17.3,91,0.00,CLR,SKC,0.00,0.0,WeatherDisplay:10.37,2013-05-30 10:01:00,
2013-05-30 05:06:00,78.4,75.6,29.73,SE,144,13.8,13.8,91,0.00,CLR,SKC,0.00,0.0,WeatherDisplay:10.37,2013-05-30 10:06:00,
2013-05-30 05:11:00,78.4,75.6,29.73,SE,138,13.8,13.8,91,0.00,CLR,SKC,0.00,0.0,WeatherDisplay:10.37,2013-05-30 10:11:00,
2013-05-30 05:16:00,78.3,75.5,29.73,SE,129,13.0,13.0,91,0.00,CLR,SKC,0.00,0.0,WeatherDisplay:10.37,2013-05-30 10:16:00,
2013-05-30 05:21:00,78.4,75.6,29.73,SE,138,13.8,13.8,91,0.00,CLR,SKC,0.00,0.0,WeatherDisplay:10.37,2013-05-30 10:21:00,
2013-05-30 05:26:00,78.3,75.5,29.73,SE,130,11.5,11.5,91,0.00,CLR,SKC,0.00,0.0,WeatherDisplay:10.37,2013-05-30 10:26:00,
2013-05-30 05:31:00,78.3,75.5,29.73,SE,125,15.0,15.0,91,0.00,CLR,SKC,0.00,0.0,WeatherDisplay:10.37,2013-05-30 10:31:00,
2013-05-30 05:36:00,78.3,75.5,29.73,South,173,18.4,18.4,91,0.00,CLR,SKC,0.00,0.0,WeatherDisplay:10.37,2013-05-30 10:36:00,
2013-05-30 05:41:00,78.4,75.6,29.74,South,171,13.8,13.8,91,0.00,CLR,SKC,0.00,0.0,WeatherDisplay:10.37,2013-05-30 10:41:00,
2013-05-30 05:46:00,78.4,75.6,29.74,SE,130,17.3,17.3,91,0.00,CLR,SKC,0.00,0.0,WeatherDisplay:10.37,2013-05-30 10:46:00,
2013-05-30 05:51:00,78.4,75.6,29.74,SSE,161,10.4,10.4,91,0.00,CLR,SKC,0.00,0.0,WeatherDisplay:10.37,2013-05-30 10:51:00,
2013-05-30 05:56:00,78.4,75.6,29.74,East,96,11.5,11.5,91,0.00,CLR,SKC,0.00,0.0,WeatherDisplay:10.37,2013-05-30 10:56:00,
2013-05-30 06:01:00,78.4,75.6,29.74,SSE,160,16.1,16.1,91,0.00,CLR,SKC,0.00,0.0,WeatherDisplay:10.37,2013-05-30 11:01:00,
2013-05-30 06:06:00,78.4,75.6,29.74,ESE,113,16.1,16.1,91,0.00,CLR,SKC,0.00,0.0,WeatherDisplay:10.37,2013-05-30 11:06:00,
2013-05-30 06:11:00,78.3,75.5,29.74,SE,145,18.4,18.4,91,0.00,CLR,SKC,0.00,0.0,WeatherDisplay:10.37,2013-05-30 11:11:00,
2013-05-30 06:16:00,78.4,75.6,29.74,SE,132,13.8,13.8,91,0.00,CLR,SKC,0.00,0.0,WeatherDisplay:10.37,2013-05-30 11:16:00,
2013-05-30 06:21:00,78.4,75.6,29.74,SE,138,17.3,17.3,91,0.00,CLR,SKC,0.00,0.0,WeatherDisplay:10.37,2013-05-30 11:21:00,
2013-05-30 06:26:00,78.4,75.6,29.75,SE,136,13.8,13.8,91,0.00,CLR,SKC,0.00,0.0,WeatherDisplay:10.37,2013-05-30 11:26:00,
2013-05-30 06:31:00,78.4,75.6,29.75,SE,133,12.7,12.7,91,0.00,CLR,SKC,0.00,0.0,WeatherDisplay:10.37,2013-05-30 11:31:00,
2013-05-30 06:36:00,78.4,75.6,29.75,SSE,149,13.0,13.0,91,0.00,CLR,SKC,0.00,5.0,WeatherDisplay:10.37,2013-05-30 11:36:00,
2013-05-30 06:41:00,78.3,75.5,29.75,South,170,16.1,16.1,91,0.00,CLR,SKC,0.00,7.0,WeatherDisplay:10.37,2013-05-30 11:41:00,
2013-05-30 06:46:00,78.3,75.5,29.75,SSE,153,11.5,11.5,91,0.00,CLR,SKC,0.00,12.0,WeatherDisplay:10.37,2013-05-30 11:46:00,
2013-05-30 06:51:00,78.4,75.9,29.75,SSE,155,13.8,13.8,92,0.00,CLR,SKC,0.00,21.0,WeatherDisplay:10.37,2013-05-30 11:51:00,
2013-05-30 06:56:00,78.4,75.6,29.75,ESE,108,11.5,11.5,91,0.00,CLR,SKC,0.00,28.0,WeatherDisplay:10.37,2013-05-30 11:56:00,
2013-05-30 07:01:00,78.5,75.7,29.75,SE,127,13.8,13.8,91,0.00,CLR,SKC,0.00,49.0,WeatherDisplay:10.37,2013-05-30 12:01:00,
2013-05-30 07:06:00,78.6,75.8,29.75,ESE,103,8.1,8.1,91,0.00,CLR,SKC,0.00,62.0,WeatherDisplay:10.37,2013-05-30 12:06:00,
2013-05-30 07:11:00,78.7,75.8,29.76,SE,127,13.8,13.8,91,0.00,CLR,SKC,0.00,86.0,WeatherDisplay:10.37,2013-05-30 12:11:00,
2013-05-30 07:16:00,78.7,75.8,29.76,SSE,155,15.0,15.0,91,0.00,CLR,SKC,0.00,114.0,WeatherDisplay:10.37,2013-05-30 12:16:00,
2013-05-30 07:21:00,78.8,75.9,29.76,SE,142,19.6,19.6,91,0.00,CLR,SKC,0.00,134.0,WeatherDisplay:10.37,2013-05-30 12:21:00,
2013-05-30 07:26:00,78.9,76.0,29.76,ESE,116,13.8,13.8,91,0.00,CLR,SKC,0.00,163.0,WeatherDisplay:10.37,2013-05-30 12:26:00,
2013-05-30 07:31:00,79.0,76.1,29.76,SE,134,13.8,13.8,91,0.00,CLR,SKC,0.00,181.0,WeatherDisplay:10.37,2013-05-30 12:31:00,
2013-05-30 07:36:00,79.2,76.3,29.76,South,169,13.8,13.8,91,0.00,CLR,SKC,0.00,155.0,WeatherDisplay:10.37,2013-05-30 12:36:00,
2013-05-30 07:41:00,79.3,76.4,29.76,SE,132,13.8,13.8,91,0.00,CLR,SKC,0.00,162.0,WeatherDisplay:10.37,2013-05-30 12:41:00,
2013-05-30 07:46:00,79.5,76.3,29.76,SSE,156,11.5,11.5,90,0.00,CLR,SKC,0.00,151.0,WeatherDisplay:10.37,2013-05-30 12:46:00,
2013-05-30 07:51:00,79.6,76.4,29.76,ESE,117,13.0,13.0,90,0.00,CLR,SKC,0.00,132.0,WeatherDisplay:10.37,2013-05-30 12:51:00,
2013-05-30 07:56:00,79.9,76.7,29.76,SE,130,10.4,10.4,90,0.00,CLR,SKC,0.00,102.0,WeatherDisplay:10.37,2013-05-30 12:56:00,
2013-05-30 08:01:00,80.0,76.5,29.76,South,176,16.1,16.1,89,0.00,CLR,SKC,0.00,100.0,WeatherDisplay:10.37,2013-05-30 13:01:00,
2013-05-30 08:06:00,80.1,76.6,29.76,ESE,122,13.0,13.0,89,0.00,CLR,SKC,0.00,121.0,WeatherDisplay:10.37,2013-05-30 13:06:00,
2013-05-30 08:11:00,80.1,76.6,29.76,ESE,117,12.0,12.0,89,0.00,CLR,SKC,0.00,105.0,WeatherDisplay:10.37,2013-05-30 13:11:00,
2013-05-30 08:16:00,80.2,76.7,29.76,ESE,108,15.0,15.0,89,0.00,CLR,SKC,0.00,93.0,WeatherDisplay:10.37,2013-05-30 13:16:00,
2013-05-30 08:21:00,80.3,76.8,29.76,SE,134,9.2,9.2,89,0.00,CLR,SKC,0.00,135.0,WeatherDisplay:10.37,2013-05-30 13:21:00,
2013-05-30 08:26:00,80.5,77.0,29.77,South,191,11.5,11.5,89,0.00,CLR,SKC,0.00,114.0,WeatherDisplay:10.37,2013-05-30 13:26:00,
2013-05-30 08:31:00,80.5,76.6,29.77,ESE,105,15.0,15.0,88,0.00,CLR,SKC,0.00,281.0,WeatherDisplay:10.37,2013-05-30 13:31:00,
2013-05-30 08:36:00,80.6,76.7,29.77,South,191,12.7,12.7,88,0.00,CLR,SKC,0.00,350.0,WeatherDisplay:10.37,2013-05-30 13:36:00,
2013-05-30 08:41:00,80.8,76.9,29.78,SSE,163,10.4,10.4,88,0.00,CLR,SKC,0.00,302.0,WeatherDisplay:10.37,2013-05-30 13:41:00,
2013-05-30 08:46:00,81.0,77.1,29.78,ESE,123,10.4,10.4,88,0.00,CLR,SKC,0.00,229.0,WeatherDisplay:10.37,2013-05-30 13:46:00,
2013-05-30 08:51:00,80.9,77.0,29.78,SE,133,12.7,12.7,88,0.00,CLR,SKC,0.00,302.0,WeatherDisplay:10.37,2013-05-30 13:51:00,
2013-05-30 08:56:00,81.0,77.1,29.79,East,96,17.3,17.3,88,0.00,CLR,SKC,0.00,315.0,WeatherDisplay:10.37,2013-05-30 13:56:00,
2013-05-30 09:01:00,81.0,77.1,29.79,SSE,157,12.7,12.7,88,0.00,CLR,SKC,0.00,227.0,WeatherDisplay:10.37,2013-05-30 14:01:00,
2013-05-30 09:06:00,81.1,77.2,29.79,ESE,111,9.2,9.2,88,0.00,CLR,SKC,0.00,299.0,WeatherDisplay:10.37,2013-05-30 14:06:00,
2013-05-30 09:11:00,81.2,77.3,29.79,ESE,106,11.5,11.5,88,0.00,CLR,SKC,0.00,274.0,WeatherDisplay:10.37,2013-05-30 14:11:00,
2013-05-30 09:16:00,81.4,77.5,29.79,SE,139,10.4,10.4,88,0.00,CLR,SKC,0.00,527.0,WeatherDisplay:10.37,2013-05-30 14:16:00,
2013-05-30 09:21:00,81.5,77.3,29.79,SE,144,11.5,11.5,87,0.00,CLR,SKC,0.00,501.0,WeatherDisplay:10.37,2013-05-30 14:21:00,
2013-05-30 09:26:00,81.5,77.3,29.80,SE,128,11.5,11.5,87,0.00,CLR,SKC,0.00,575.0,WeatherDisplay:10.37,2013-05-30 14:26:00,
2013-05-30 09:31:00,81.8,77.5,29.80,SSE,168,12.7,12.7,87,0.00,CLR,SKC,0.00,397.0,WeatherDisplay:10.37,2013-05-30 14:31:00,
2013-05-30 09:36:00,82.1,77.5,29.80,SSE,150,11.5,11.5,86,0.00,CLR,SKC,0.00,362.0,WeatherDisplay:10.37,2013-05-30 14:36:00,
2013-05-30 09:41:00,81.9,77.3,29.80,SE,138,11.5,11.5,86,0.00,CLR,SKC,0.00,359.0,WeatherDisplay:10.37,2013-05-30 14:41:00,
2013-05-30 09:46:00,81.7,77.1,29.80,South,187,11.5,11.5,86,0.00,CLR,SKC,0.00,332.0,WeatherDisplay:10.37,2013-05-30 14:46:00,
2013-05-30 09:51:00,81.8,77.2,29.80,SE,126,6.9,6.9,86,0.00,CLR,SKC,0.00,475.0,WeatherDisplay:10.37,2013-05-30 14:51:00,
2013-05-30 09:56:00,82.1,77.5,29.81,ESE,114,11.5,11.5,86,0.00,CLR,SKC,0.00,475.0,WeatherDisplay:10.37,2013-05-30 14:56:00,
2013-05-30 10:01:00,82.0,77.0,29.81,South,191,10.4,10.4,85,0.00,CLR,SKC,0.00,336.0,WeatherDisplay:10.37,2013-05-30 15:01:00,
2013-05-30 10:06:00,82.1,77.1,29.81,SE,139,11.5,11.5,85,0.00,CLR,SKC,0.00,355.0,WeatherDisplay:10.37,2013-05-30 15:06:00,
2013-05-30 10:11:00,82.1,77.1,29.81,ESE,117,9.2,9.2,85,0.00,CLR,SKC,0.00,355.0,WeatherDisplay:10.37,2013-05-30 15:11:00,
2013-05-30 10:16:00,82.1,77.1,29.81,South,171,10.4,10.4,85,0.00,CLR,SKC,0.00,236.0,WeatherDisplay:10.37,2013-05-30 15:16:00,
2013-05-30 10:21:00,82.1,77.1,29.81,SSW,192,11.5,11.5,85,0.00,CLR,SKC,0.00,250.0,WeatherDisplay:10.37,2013-05-30 15:21:00,
2013-05-30 10:26:00,82.1,77.1,29.81,ESE,116,9.2,9.2,85,0.00,CLR,SKC,0.00,919.0,WeatherDisplay:10.37,2013-05-30 15:26:00,
2013-05-30 10:31:00,82.4,77.4,29.81,SE,130,15.0,15.0,85,0.00,CLR,SKC,0.00,919.0,WeatherDisplay:10.37,2013-05-30 15:31:00,
2013-05-30 10:36:00,82.7,77.7,29.81,SE,140,15.0,15.0,85,0.00,CLR,SKC,0.00,817.0,WeatherDisplay:10.37,2013-05-30 15:36:00,
2013-05-30 10:41:00,82.8,77.5,29.81,SE,130,11.5,11.5,84,0.00,CLR,SKC,0.00,817.0,WeatherDisplay:10.37,2013-05-30 15:41:00,
2013-05-30 10:46:00,82.7,77.4,29.81,SE,144,13.8,13.8,84,0.00,CLR,SKC,0.00,501.0,WeatherDisplay:10.37,2013-05-30 15:46:00,
2013-05-30 10:51:00,82.9,77.9,29.81,ESE,117,8.1,8.1,85,0.00,CLR,SKC,0.00,501.0,WeatherDisplay:10.37,2013-05-30 15:51:00,
2013-05-30 10:56:00,83.1,77.8,29.80,SE,134,12.7,12.7,84,0.00,CLR,SKC,0.00,501.0,WeatherDisplay:10.37,2013-05-30 15:56:00,
2013-05-30 11:01:00,83.0,77.7,29.80,SE,131,15.0,15.0,84,0.00,CLR,SKC,0.00,807.0,WeatherDisplay:10.37,2013-05-30 16:01:00,
2013-05-30 11:06:00,83.1,77.8,29.80,SE,137,11.5,11.5,84,0.00,CLR,SKC,0.00,802.0,WeatherDisplay:10.37,2013-05-30 16:06:00,
2013-05-30 11:11:00,83.2,77.9,29.81,SE,140,16.1,16.1,84,0.00,CLR,SKC,0.00,520.0,WeatherDisplay:10.37,2013-05-30 16:11:00,
2013-05-30 11:16:00,83.0,77.7,29.81,SE,138,12.7,12.7,84,0.00,CLR,SKC,0.00,907.0,WeatherDisplay:10.37,2013-05-30 16:16:00,
2013-05-30 11:21:00,82.9,77.6,29.81,SE,130,12.7,12.7,84,0.00,CLR,SKC,0.00,907.0,WeatherDisplay:10.37,2013-05-30 16:21:00,
2013-05-30 11:26:00,83.0,77.7,29.81,SE,134,10.4,10.4,84,0.00,CLR,SKC,0.00,826.0,WeatherDisplay:10.37,2013-05-30 16:26:00,
2013-05-30 11:31:00,83.4,78.1,29.81,SE,124,10.4,10.4,84,0.00,CLR,SKC,0.00,939.0,WeatherDisplay:10.37,2013-05-30 16:31:00,
2013-05-30 11:36:00,83.3,77.6,29.81,SE,126,12.7,12.7,83,0.00,CLR,SKC,0.00,497.0,WeatherDisplay:10.37,2013-05-30 16:36:00,
2013-05-30 11:41:00,83.1,77.8,29.80,WSW,258,12.7,12.7,84,0.00,CLR,SKC,0.00,670.0,WeatherDisplay:10.37,2013-05-30 16:41:00,
2013-05-30 11:46:00,83.4,78.1,29.80,SSE,163,11.0,11.0,84,0.00,CLR,SKC,0.00,872.0,WeatherDisplay:10.37,2013-05-30 16:46:00,
2013-05-30 11:51:00,83.7,78.0,29.80,SSE,163,13.8,13.8,83,0.00,CLR,SKC,0.00,932.0,WeatherDisplay:10.37,2013-05-30 16:51:00,
2013-05-30 11:56:00,83.6,77.9,29.80,SSE,159,11.5,11.5,83,0.00,CLR,SKC,0.00,932.0,WeatherDisplay:10.37,2013-05-30 16:56:00,
2013-05-30 12:01:00,83.6,77.9,29.80,SE,145,13.8,13.8,83,0.00,CLR,SKC,0.00,888.0,WeatherDisplay:10.37,2013-05-30 17:01:00,
2013-05-30 12:06:00,83.5,77.8,29.80,ESE,121,16.1,16.1,83,0.00,CLR,SKC,0.00,914.0,WeatherDisplay:10.37,2013-05-30 17:06:00,
2013-05-30 12:11:00,83.6,77.9,29.80,SE,127,13.8,13.8,83,0.00,CLR,SKC,0.00,916.0,WeatherDisplay:10.37,2013-05-30 17:11:00,
2013-05-30 12:16:00,83.3,78.0,29.80,ESE,121,16.1,16.1,84,0.00,CLR,SKC,0.00,853.0,WeatherDisplay:10.37,2013-05-30 17:16:00,
2013-05-30 12:21:00,83.1,77.8,29.80,ESE,119,11.5,11.5,84,0.00,CLR,SKC,0.00,942.0,WeatherDisplay:10.37,2013-05-30 17:21:00,
2013-05-30 12:26:00,83.3,78.0,29.79,ESE,123,10.4,10.4,84,0.00,CLR,SKC,0.00,937.0,WeatherDisplay:10.37,2013-05-30 17:26:00,
2013-05-30 12:31:00,83.2,77.9,29.79,SE,145,11.5,11.5,84,0.00,CLR,SKC,0.00,849.0,WeatherDisplay:10.37,2013-05-30 17:31:00,
2013-05-30 12:36:00,82.9,77.6,29.79,SE,136,18.4,18.4,84,0.00,CLR,SKC,0.00,921.0,WeatherDisplay:10.37,2013-05-30 17:36:00,
2013-05-30 12:41:00,82.7,77.7,29.80,ESE,111,17.3,17.3,85,0.00,CLR,SKC,0.00,949.0,WeatherDisplay:10.37,2013-05-30 17:41:00,
2013-05-30 12:46:00,83.0,77.7,29.80,East,96,13.0,13.0,84,0.00,CLR,SKC,0.00,972.0,WeatherDisplay:10.37,2013-05-30 17:46:00,
2013-05-30 12:51:00,83.0,78.0,29.80,East,88,11.5,11.5,85,0.00,CLR,SKC,0.00,963.0,WeatherDisplay:10.37,2013-05-30 17:51:00,
2013-05-30 12:56:00,82.9,77.6,29.80,SE,126,17.3,17.3,84,0.00,CLR,SKC,0.00,944.0,WeatherDisplay:10.37,2013-05-30 17:56:00,
2013-05-30 13:01:00,83.0,77.7,29.80,ESE,121,16.1,16.1,84,0.00,CLR,SKC,0.00,995.0,WeatherDisplay:10.37,2013-05-30 18:01:00,
2013-05-30 13:06:00,82.7,77.7,29.80,ESE,108,12.7,12.7,85,0.00,CLR,SKC,0.00,972.0,WeatherDisplay:10.37,2013-05-30 18:06:00,
2013-05-30 13:11:00,82.5,77.5,29.80,SE,126,17.3,17.3,85,0.00,CLR,SKC,0.00,900.0,WeatherDisplay:10.37,2013-05-30 18:11:00,
2013-05-30 13:16:00,82.6,77.6,29.80,SE,131,15.0,15.0,85,0.00,CLR,SKC,0.00,963.0,WeatherDisplay:10.37,2013-05-30 18:16:00,
2013-05-30 13:21:00,82.6,77.6,29.80,ESE,111,17.3,17.3,85,0.00,CLR,SKC,0.00,951.0,WeatherDisplay:10.37,2013-05-30 18:21:00,
2013-05-30 13:26:00,82.5,77.5,29.79,SE,140,18.4,18.4,85,0.00,CLR,SKC,0.00,958.0,WeatherDisplay:10.37,2013-05-30 18:26:00,
2013-05-30 13:31:00,82.8,78.2,29.79,East,94,15.0,15.0,86,0.00,CLR,SKC,0.00,1018.0,WeatherDisplay:10.37,2013-05-30 18:31:00,
2013-05-30 13:36:00,82.9,77.9,29.79,ESE,123,16.0,16.0,85,0.00,CLR,SKC,0.00,531.0,WeatherDisplay:10.37,2013-05-30 18:36:00,
2013-05-30 13:41:00,82.7,78.1,29.79,SE,130,13.8,13.8,86,0.00,CLR,SKC,0.00,904.0,WeatherDisplay:10.37,2013-05-30 18:41:00,
2013-05-30 13:46:00,82.6,77.6,29.79,ESE,113,17.3,17.3,85,0.00,CLR,SKC,0.00,904.0,WeatherDisplay:10.37,2013-05-30 18:46:00,
2013-05-30 13:51:00,82.7,78.1,29.79,ESE,114,17.3,17.3,86,0.00,CLR,SKC,0.00,940.0,WeatherDisplay:10.37,2013-05-30 18:51:00,
2013-05-30 13:56:00,82.8,77.8,29.79,ESE,123,13.8,13.8,85,0.00,CLR,SKC,0.00,1034.0,WeatherDisplay:10.37,2013-05-30 18:56:00,
2013-05-30 14:01:00,82.7,77.7,29.79,ESE,107,16.1,16.1,85,0.00,CLR,SKC,0.00,967.0,WeatherDisplay:10.37,2013-05-30 19:01:00,
2013-05-30 14:06:00,82.9,77.9,29.79,ESE,117,17.3,17.3,85,0.00,CLR,SKC,0.00,942.0,WeatherDisplay:10.37,2013-05-30 19:06:00,
2013-05-30 14:11:00,83.1,78.1,29.79,ESE,123,11.5,11.5,85,0.00,CLR,SKC,0.00,983.0,WeatherDisplay:10.37,2013-05-30 19:11:00,
2013-05-30 14:16:00,83.1,78.1,29.79,ESE,105,12.7,12.7,85,0.00,CLR,SKC,0.00,942.0,WeatherDisplay:10.37,2013-05-30 19:16:00,
2013-05-30 14:21:00,83.2,78.2,29.79,ESE,110,12.7,12.7,85,0.00,CLR,SKC,0.00,925.0,WeatherDisplay:10.37,2013-05-30 19:21:00,
2013-05-30 14:26:00,82.9,77.9,29.79,ESE,117,15.0,15.0,85,0.00,CLR,SKC,0.00,951.0,WeatherDisplay:10.37,2013-05-30 19:26:00,
2013-05-30 14:31:00,82.8,77.8,29.79,SE,134,20.7,20.7,85,0.00,CLR,SKC,0.00,875.0,WeatherDisplay:10.37,2013-05-30 19:31:00,
2013-05-30 14:36:00,82.7,78.1,29.79,SSE,154,15.0,15.0,86,0.00,CLR,SKC,0.00,904.0,WeatherDisplay:10.37,2013-05-30 19:36:00,
2013-05-30 14:41:00,82.7,78.1,29.78,ESE,109,18.4,18.4,86,0.00,CLR,SKC,0.00,914.0,WeatherDisplay:10.37,2013-05-30 19:41:00,
2013-05-30 14:46:00,82.5,77.9,29.78,SE,126,17.3,17.3,86,0.00,CLR,SKC,0.00,935.0,WeatherDisplay:10.37,2013-05-30 19:46:00,
2013-05-30 14:51:00,82.3,77.7,29.78,SE,130,13.8,13.8,86,0.00,CLR,SKC,0.00,882.0,WeatherDisplay:10.37,2013-05-30 19:51:00,
2013-05-30 14:56:00,82.7,78.1,29.78,East,100,15.0,15.0,86,0.00,CLR,SKC,0.00,879.0,WeatherDisplay:10.37,2013-05-30 19:56:00,
2013-05-30 15:01:00,82.7,77.7,29.78,East,100,19.6,19.6,85,0.00,CLR,SKC,0.00,861.0,WeatherDisplay:10.37,2013-05-30 20:01:00,
2013-05-30 15:06:00,82.5,77.9,29.78,ESE,109,17.3,17.3,86,0.00,CLR,SKC,0.00,854.0,WeatherDisplay:10.37,2013-05-30 20:06:00,
2013-05-30 15:11:00,82.8,78.2,29.77,SSE,150,14.0,14.0,86,0.00,CLR,SKC,0.00,889.0,WeatherDisplay:10.37,2013-05-30 20:11:00,
2013-05-30 15:16:00,82.7,77.7,29.77,SE,136,18.4,18.4,85,0.00,CLR,SKC,0.00,861.0,WeatherDisplay:10.37,2013-05-30 20:16:00,
2013-05-30 15:21:00,82.7,78.1,29.77,SE,126,17.3,17.3,86,0.00,CLR,SKC,0.00,860.0,WeatherDisplay:10.37,2013-05-30 20:21:00,
2013-05-30 15:26:00,82.9,77.9,29.77,SE,130,15.0,15.0,85,0.00,CLR,SKC,0.00,826.0,WeatherDisplay:10.37,2013-05-30 20:26:00,
2013-05-30 15:31:00,83.2,78.2,29.77,SSE,155,19.6,19.6,85,0.00,CLR,SKC,0.00,842.0,WeatherDisplay:10.37,2013-05-30 20:31:00,
2013-05-30 15:36:00,82.9,77.9,29.77,ENE,77,18.0,18.0,85,0.00,CLR,SKC,0.00,872.0,WeatherDisplay:10.37,2013-05-30 20:36:00,
2013-05-30 15:41:00,82.7,77.7,29.77,ESE,123,18.4,18.4,85,0.00,CLR,SKC,0.00,786.0,WeatherDisplay:10.37,2013-05-30 20:41:00,
2013-05-30 15:46:00,82.7,78.1,29.77,SE,126,16.1,16.1,86,0.00,CLR,SKC,0.00,773.0,WeatherDisplay:10.37,2013-05-30 20:46:00,
2013-05-30 15:51:00,82.8,78.2,29.77,East,100,13.8,13.8,86,0.00,CLR,SKC,0.00,773.0,WeatherDisplay:10.37,2013-05-30 20:51:00,
2013-05-30 15:56:00,82.9,78.3,29.77,ESE,103,13.8,13.8,86,0.00,CLR,SKC,0.00,744.0,WeatherDisplay:10.37,2013-05-30 20:56:00,
2013-05-30 16:01:00,82.6,77.6,29.77,ESE,102,20.7,20.7,85,0.00,CLR,SKC,0.00,752.0,WeatherDisplay:10.37,2013-05-30 21:01:00,
2013-05-30 16:06:00,82.5,77.9,29.77,East,100,17.3,17.3,86,0.00,CLR,SKC,0.00,728.0,WeatherDisplay:10.37,2013-05-30 21:06:00,
2013-05-30 16:11:00,82.9,78.3,29.77,ESE,113,15.0,15.0,86,0.00,CLR,SKC,0.00,649.0,WeatherDisplay:10.37,2013-05-30 21:11:00,
2013-05-30 16:16:00,82.9,77.9,29.77,East,97,13.8,13.8,85,0.00,CLR,SKC,0.00,728.0,WeatherDisplay:10.37,2013-05-30 21:16:00,
2013-05-30 16:21:00,82.9,78.3,29.77,SE,144,12.7,12.7,86,0.00,CLR,SKC,0.00,696.0,WeatherDisplay:10.37,2013-05-30 21:21:00,
2013-05-30 16:26:00,82.7,78.1,29.76,ESE,106,17.3,17.3,86,0.00,CLR,SKC,0.00,687.0,WeatherDisplay:10.37,2013-05-30 21:26:00,
2013-05-30 16:31:00,82.5,77.9,29.76,ESE,119,17.0,17.0,86,0.00,CLR,SKC,0.00,642.0,WeatherDisplay:10.37,2013-05-30 21:31:00,
2013-05-30 16:36:00,82.5,77.9,29.76,SE,128,20.7,20.7,86,0.00,CLR,SKC,0.00,691.0,WeatherDisplay:10.37,2013-05-30 21:36:00,
2013-05-30 16:41:00,82.7,78.1,29.76,SSE,147,13.8,13.8,86,0.00,CLR,SKC,0.00,640.0,WeatherDisplay:10.37,2013-05-30 21:41:00,
2013-05-30 16:46:00,82.5,77.9,29.76,ESE,121,21.9,21.9,86,0.00,CLR,SKC,0.00,622.0,WeatherDisplay:10.37,2013-05-30 21:46:00,
2013-05-30 16:51:00,82.4,78.1,29.76,ESE,111,16.1,16.1,87,0.00,CLR,SKC,0.00,633.0,WeatherDisplay:10.37,2013-05-30 21:51:00,
2013-05-30 16:56:00,82.5,77.9,29.76,SE,129,17.3,17.3,86,0.00,CLR,SKC,0.00,587.0,WeatherDisplay:10.37,2013-05-30 21:56:00,
2013-05-30 17:01:00,82.3,78.0,29.76,SE,129,17.3,17.3,87,0.00,CLR,SKC,0.00,582.0,WeatherDisplay:10.37,2013-05-30 22:01:00,
2013-05-30 17:06:00,82.2,77.9,29.76,SE,126,16.1,16.1,87,0.00,CLR,SKC,0.00,578.0,WeatherDisplay:10.37,2013-05-30 22:06:00,
2013-05-30 17:11:00,82.2,77.9,29.76,SSE,148,17.3,17.3,87,0.00,CLR,SKC,0.00,578.0,WeatherDisplay:10.37,2013-05-30 22:11:00,
2013-05-30 17:16:00,82.3,78.0,29.76,East,84,19.6,19.6,87,0.00,CLR,SKC,0.00,545.0,WeatherDisplay:10.37,2013-05-30 22:16:00,
2013-05-30 17:21:00,82.3,78.0,29.76,East,83,13.8,13.8,87,0.00,CLR,SKC,0.00,522.0,WeatherDisplay:10.37,2013-05-30 22:21:00,
2013-05-30 17:26:00,82.1,77.8,29.75,ESE,117,15.0,15.0,87,0.00,CLR,SKC,0.00,501.0,WeatherDisplay:10.37,2013-05-30 22:26:00,
2013-05-30 17:31:00,82.1,77.8,29.75,ESE,121,17.3,17.3,87,0.00,CLR,SKC,0.00,487.0,WeatherDisplay:10.37,2013-05-30 22:31:00,
2013-05-30 17:36:00,82.1,77.8,29.75,ESE,112,16.1,16.1,87,0.00,CLR,SKC,0.00,478.0,WeatherDisplay:10.37,2013-05-30 22:36:00,
2013-05-30 17:41:00,82.2,77.9,29.75,NE,54,15.0,15.0,87,0.00,CLR,SKC,0.00,446.0,WeatherDisplay:10.37,2013-05-30 22:41:00,
2013-05-30 17:46:00,82.0,78.1,29.75,East,83,15.0,15.0,88,0.00,CLR,SKC,0.00,438.0,WeatherDisplay:10.37,2013-05-30 22:46:00,
2013-05-30 17:51:00,82.0,78.1,29.75,SE,126,16.1,16.1,88,0.00,CLR,SKC,0.00,439.0,WeatherDisplay:10.37,2013-05-30 22:51:00,
2013-05-30 17:56:00,82.0,78.1,29.75,SE,126,15.0,15.0,88,0.00,CLR,SKC,0.00,417.0,WeatherDisplay:10.37,2013-05-30 22:56:00,
2013-05-30 18:01:00,81.7,77.8,29.75,ESE,119,18.4,18.4,88,0.00,CLR,SKC,0.00,394.0,WeatherDisplay:10.37,2013-05-30 23:01:00,
2013-05-30 18:06:00,81.5,77.6,29.75,SE,132,19.6,19.6,88,0.00,CLR,SKC,0.00,399.0,WeatherDisplay:10.37,2013-05-30 23:06:00,
2013-05-30 18:11:00,81.5,77.9,29.75,SE,128,16.1,16.1,89,0.00,CLR,SKC,0.00,315.0,WeatherDisplay:10.37,2013-05-30 23:11:00,
2013-05-30 18:16:00,81.6,78.0,29.75,SE,128,12.7,12.7,89,0.00,CLR,SKC,0.00,330.0,WeatherDisplay:10.37,2013-05-30 23:16:00,
2013-05-30 18:21:00,81.6,78.0,29.75,ESE,119,18.0,18.0,89,0.00,CLR,SKC,0.00,316.0,WeatherDisplay:10.37,2013-05-30 23:21:00,
2013-05-30 18:26:00,81.3,77.7,29.75,ESE,117,19.6,19.6,89,0.00,CLR,SKC,0.00,299.0,WeatherDisplay:10.37,2013-05-30 23:26:00,
2013-05-30 18:31:00,81.3,77.7,29.75,SE,124,19.6,19.6,89,0.00,CLR,SKC,0.00,287.0,WeatherDisplay:10.37,2013-05-30 23:31:00,
2013-05-30 18:36:00,81.3,77.7,29.75,ESE,121,16.1,16.1,89,0.00,CLR,SKC,0.00,260.0,WeatherDisplay:10.37,2013-05-30 23:36:00,
2013-05-30 18:41:00,81.2,77.6,29.75,SE,130,18.4,18.4,89,0.00,CLR,SKC,0.00,267.0,WeatherDisplay:10.37,2013-05-30 23:41:00,
2013-05-30 18:46:00,81.3,77.7,29.75,ESE,112,19.6,19.6,89,0.00,CLR,SKC,0.00,213.0,WeatherDisplay:10.37,2013-05-30 23:46:00,
2013-05-30 18:51:00,81.2,77.6,29.75,SE,126,15.0,15.0,89,0.00,CLR,SKC,0.00,202.0,WeatherDisplay:10.37,2013-05-30 23:51:00,
2013-05-30 18:56:00,81.1,77.5,29.75,ESE,122,18.4,18.4,89,0.00,CLR,SKC,0.00,114.0,WeatherDisplay:10.37,2013-05-30 23:56:00,
2013-05-30 19:01:00,81.0,77.8,29.75,ESE,116,15.0,15.0,90,0.00,CLR,SKC,0.00,230.0,WeatherDisplay:10.37,2013-05-31 00:01:00,
2013-05-30 19:06:00,80.9,77.7,29.75,SE,129,15.0,15.0,90,0.00,CLR,SKC,0.00,128.0,WeatherDisplay:10.37,2013-05-31 00:06:00,
2013-05-30 19:11:00,80.7,77.5,29.75,SE,124,19.6,19.6,90,0.00,CLR,SKC,0.00,88.0,WeatherDisplay:10.37,2013-05-31 00:11:00,
2013-05-30 19:16:00,80.7,77.5,29.75,ESE,109,18.4,18.4,90,0.00,CLR,SKC,0.00,91.0,WeatherDisplay:10.37,2013-05-31 00:16:00,
2013-05-30 19:21:00,80.6,77.7,29.75,ESE,111,17.3,17.3,91,0.00,CLR,SKC,0.00,139.0,WeatherDisplay:10.37,2013-05-31 00:21:00,
2013-05-30 19:26:00,80.5,77.6,29.75,East,84,18.4,18.4,91,0.00,CLR,SKC,0.00,70.0,WeatherDisplay:10.37,2013-05-31 00:26:00,
2013-05-30 19:31:00,80.6,77.7,29.75,East,95,16.0,16.0,91,0.00,CLR,SKC,0.00,74.0,WeatherDisplay:10.37,2013-05-31 00:31:00,
2013-05-30 19:36:00,80.4,77.5,29.75,East,101,17.3,17.3,91,0.00,CLR,SKC,0.00,76.0,WeatherDisplay:10.37,2013-05-31 00:36:00,
2013-05-30 19:41:00,80.4,77.5,29.76,ESE,113,19.6,19.6,91,0.00,CLR,SKC,0.00,63.0,WeatherDisplay:10.37,2013-05-31 00:41:00,
2013-05-30 19:46:00,80.4,77.5,29.76,ESE,113,15.0,15.0,91,0.00,CLR,SKC,0.00,47.0,WeatherDisplay:10.37,2013-05-31 00:46:00,
2013-05-30 19:51:00,80.3,77.4,29.76,SSE,157,18.4,18.4,91,0.00,CLR,SKC,0.00,30.0,WeatherDisplay:10.37,2013-05-31 00:51:00,
2013-05-30 19:56:00,80.2,77.3,29.75,ESE,117,15.0,15.0,91,0.00,CLR,SKC,0.00,21.0,WeatherDisplay:10.37,2013-05-31 00:56:00,
2013-05-30 20:01:00,80.2,77.3,29.75,ESE,111,15.0,15.0,91,0.00,CLR,SKC,0.00,19.0,WeatherDisplay:10.37,2013-05-31 01:01:00,
2013-05-30 20:06:00,80.1,77.2,29.75,SE,132,15.0,15.0,91,0.00,CLR,SKC,0.00,12.0,WeatherDisplay:10.37,2013-05-31 01:06:00,
2013-05-30 20:11:00,80.0,77.5,29.76,SE,124,18.4,18.4,92,0.00,CLR,SKC,0.00,9.0,WeatherDisplay:10.37,2013-05-31 01:11:00,
2013-05-30 20:16:00,79.9,77.4,29.76,ESE,106,12.7,12.7,92,0.00,CLR,SKC,0.00,5.0,WeatherDisplay:10.37,2013-05-31 01:16:00,
2013-05-30 20:21:00,79.8,77.3,29.76,ESE,117,17.3,17.3,92,0.00,CLR,SKC,0.00,0.0,WeatherDisplay:10.37,2013-05-31 01:21:00,
2013-05-30 20:26:00,79.8,77.3,29.76,ESE,121,12.7,12.7,92,0.00,CLR,SKC,0.00,0.0,WeatherDisplay:10.37,2013-05-31 01:26:00,
2013-05-30 20:31:00,79.8,77.3,29.76,SE,146,16.1,16.1,92,0.00,CLR,SKC,0.00,0.0,WeatherDisplay:10.37,2013-05-31 01:31:00,
2013-05-30 20:36:00,79.8,77.3,29.76,ESE,121,12.7,12.7,92,0.00,CLR,SKC,0.00,0.0,WeatherDisplay:10.37,2013-05-31 01:36:00,
2013-05-30 20:41:00,79.7,77.2,29.76,South,186,17.3,17.3,92,0.00,CLR,SKC,0.00,0.0,WeatherDisplay:10.37,2013-05-31 01:41:00,
2013-05-30 20:46:00,79.7,77.2,29.76,SE,126,16.1,16.1,92,0.00,CLR,SKC,0.00,0.0,WeatherDisplay:10.37,2013-05-31 01:46:00,
2013-05-30 20:51:00,79.7,77.2,29.76,ESE,118,11.5,11.5,92,0.00,CLR,SKC,0.00,0.0,WeatherDisplay:10.37,2013-05-31 01:51:00,
2013-05-30 20:56:00,79.7,77.2,29.76,ESE,117,15.0,15.0,92,0.00,CLR,SKC,0.00,0.0,WeatherDisplay:10.37,2013-05-31 01:56:00,
2013-05-30 21:01:00,79.6,77.1,29.76,South,181,15.0,15.0,92,0.00,CLR,SKC,0.00,0.0,WeatherDisplay:10.37,2013-05-31 02:01:00,
2013-05-30 21:06:00,79.7,77.2,29.76,SE,146,12.7,12.7,92,0.00,CLR,SKC,0.00,0.0,WeatherDisplay:10.37,2013-05-31 02:06:00,
2013-05-30 21:11:00,79.6,77.1,29.77,SE,138,11.5,11.5,92,0.00,CLR,SKC,0.00,0.0,WeatherDisplay:10.37,2013-05-31 02:11:00,
2013-05-30 21:16:00,79.6,77.1,29.77,SE,129,16.1,16.1,92,0.00,CLR,SKC,0.00,0.0,WeatherDisplay:10.37,2013-05-31 02:16:00,
2013-05-30 21:21:00,79.6,77.4,29.77,East,92,13.8,13.8,93,0.00,CLR,SKC,0.00,0.0,WeatherDisplay:10.37,2013-05-31 02:21:00,
2013-05-30 21:26:00,79.6,77.4,29.77,SE,138,11.5,11.5,93,0.00,CLR,SKC,0.00,0.0,WeatherDisplay:10.37,2013-05-31 02:26:00,
2013-05-30 21:31:00,79.6,77.4,29.77,ESE,110,11.5,11.5,93,0.00,CLR,SKC,0.00,0.0,WeatherDisplay:10.37,2013-05-31 02:31:00,
2013-05-30 21:36:00,79.6,77.4,29.77,SE,130,16.1,16.1,93,0.00,CLR,SKC,0.00,0.0,WeatherDisplay:10.37,2013-05-31 02:36:00,
2013-05-30 21:41:00,79.5,77.3,29.77,ESE,103,13.8,13.8,93,0.00,CLR,SKC,0.00,0.0,WeatherDisplay:10.37,2013-05-31 02:41:00,
2013-05-30 21:46:00,79.5,77.3,29.77,ESE,107,11.5,11.5,93,0.00,CLR,SKC,0.00,0.0,WeatherDisplay:10.37,2013-05-31 02:46:00,
2013-05-30 21:51:00,79.4,77.2,29.77,ESE,118,12.7,12.7,93,0.00,CLR,SKC,0.00,0.0,WeatherDisplay:10.37,2013-05-31 02:51:00,
2013-05-30 21:56:00,79.4,77.2,29.78,SE,125,12.7,12.7,93,0.00,CLR,SKC,0.00,0.0,WeatherDisplay:10.37,2013-05-31 02:56:00,
2013-05-30 22:01:00,79.3,77.1,29.78,SE,125,10.4,10.4,93,0.00,CLR,SKC,0.00,0.0,WeatherDisplay:10.37,2013-05-31 03:01:00,
2013-05-30 22:06:00,79.4,77.2,29.78,SE,128,11.5,11.5,93,0.00,CLR,SKC,0.00,0.0,WeatherDisplay:10.37,2013-05-31 03:06:00,
2013-05-30 22:11:00,79.4,77.2,29.78,SE,129,11.5,11.5,93,0.00,CLR,SKC,0.00,0.0,WeatherDisplay:10.37,2013-05-31 03:11:00,
2013-05-30 22:16:00,79.4,77.2,29.78,SE,130,11.5,11.5,93,0.00,CLR,SKC,0.00,0.0,WeatherDisplay:10.37,2013-05-31 03:16:00,
2013-05-30 22:21:00,79.4,77.2,29.78,ESE,102,11.5,11.5,93,0.00,CLR,SKC,0.00,0.0,WeatherDisplay:10.37,2013-05-31 03:21:00,
2013-05-30 22:26:00,79.4,77.2,29.79,SE,141,15.0,15.0,93,0.00,CLR,SKC,0.00,0.0,WeatherDisplay:10.37,2013-05-31 03:26:00,
2013-05-30 22:31:00,79.3,77.1,29.79,SE,134,10.4,10.4,93,0.00,CLR,SKC,0.00,0.0,WeatherDisplay:10.37,2013-05-31 03:31:00,
2013-05-30 22:36:00,79.3,77.1,29.79,SSE,155,9.2,9.2,93,0.00,CLR,SKC,0.00,0.0,WeatherDisplay:10.37,2013-05-31 03:36:00,
2013-05-30 22:41:00,79.3,77.1,29.79,SSE,165,11.5,11.5,93,0.00,CLR,SKC,0.00,0.0,WeatherDisplay:10.37,2013-05-31 03:41:00,
2013-05-30 22:46:00,79.3,77.1,29.79,SE,144,10.4,10.4,93,0.00,CLR,SKC,0.00,0.0,WeatherDisplay:10.37,2013-05-31 03:46:00,
2013-05-30 22:51:00,79.3,77.1,29.79,ESE,108,15.0,15.0,93,0.00,CLR,SKC,0.00,0.0,WeatherDisplay:10.37,2013-05-31 03:51:00,
2013-05-30 22:56:00,79.3,77.1,29.81,SSE,148,12.7,12.7,93,0.00,CLR,SKC,0.00,0.0,WeatherDisplay:10.37,2013-05-31 03:56:00,
2013-05-30 23:01:00,79.4,77.2,29.81,SE,128,9.2,9.2,93,0.00,CLR,SKC,0.00,0.0,WeatherDisplay:10.37,2013-05-31 04:01:00,
2013-05-30 23:06:00,79.4,77.2,29.81,SE,140,13.8,13.8,93,0.00,CLR,SKC,0.00,0.0,WeatherDisplay:10.37,2013-05-31 04:06:00,
2013-05-30 23:11:00,79.4,77.2,29.80,SE,146,17.3,17.3,93,0.00,CLR,SKC,0.00,0.0,WeatherDisplay:10.37,2013-05-31 04:11:00,
2013-05-30 23:16:00,79.4,77.2,29.80,SE,142,11.5,11.5,93,0.00,CLR,SKC,0.00,0.0,WeatherDisplay:10.37,2013-05-31 04:16:00,
2013-05-30 23:21:00,79.3,77.1,29.80,ESE,116,12.7,12.7,93,0.00,CLR,SKC,0.00,0.0,WeatherDisplay:10.37,2013-05-31 04:21:00,
2013-05-30 23:26:00,79.2,77.0,29.81,SE,138,12.7,12.7,93,0.00,CLR,SKC,0.00,0.0,WeatherDisplay:10.37,2013-05-31 04:26:00,
2013-05-30 23:31:00,79.2,77.0,29.81,SE,126,9.2,9.2,93,0.00,CLR,SKC,0.00,0.0,WeatherDisplay:10.37,2013-05-31 04:31:00,
2013-05-30 23:36:00,79.1,76.9,29.81,SSE,158,11.5,11.5,93,0.00,CLR,SKC,0.00,0.0,WeatherDisplay:10.37,2013-05-31 04:36:00,
2013-05-30 23:41:00,79.1,76.6,29.81,ESE,120,10.4,10.4,92,0.00,CLR,SKC,0.00,0.0,WeatherDisplay:10.37,2013-05-31 04:41:00,
2013-05-30 23:46:00,79.3,77.1,29.81,SE,124,9.2,9.2,93,0.00,CLR,SKC,0.00,0.0,WeatherDisplay:10.37,2013-05-31 04:46:00,
2013-05-30 23:51:00,79.3,77.1,29.81,SE,130,12.7,12.7,93,0.00,CLR,SKC,0.00,0.0,WeatherDisplay:10.37,2013-05-31 04:51:00,
2013-05-30 23:56:00,79.3,77.1,29.81,ESE,110,10.4,10.4,93,0.00,CLR,SKC,0.00,0.0,WeatherDisplay:10.37,2013-05-31 04:56:00,